When you browse on this site, cookies collect data to enhance your experience and personalize the content and advertising you see.
Visit our Privacy Policy to learn more. By continuing to use the site, you agree to this use of cookies and data.
EN

Hourly Weather Newport

Today, 13 July, Monday

Time Temperature Precipitation Wind Pressure Humidity
00:00 +12°C° 0 mm 2 mps 769 mmHg 85%
01:00 +13°C° 0 mm 2 mps 768 mmHg 85%
02:00 +12°C° 0 mm 3 mps 768 mmHg 86%
03:00 +13°C° 0 mm 3 mps 768 mmHg 87%
04:00 +13°C° 0 mm 3 mps 767 mmHg 87%
05:00 +13°C° 0 mm 4 mps 767 mmHg 87%
06:00 +14°C° 0 mm 4 mps 767 mmHg 87%
07:00 +14°C° 0 mm 4 mps 767 mmHg 84%
08:00 +15°C° 0 mm 5 mps 767 mmHg 82%
09:00 +15°C° 0 mm 5 mps 767 mmHg 80%
10:00 +15°C° 0.2 mm 5 mps 766 mmHg 84%
11:00 +15°C° 0.2 mm 6 mps 766 mmHg 89%
12:00 +15°C° 0.2 mm 6 mps 766 mmHg 93%
13:00 +15°C° 1.4 mm 6 mps 765 mmHg 95%
14:00 +15°C° 1.4 mm 6 mps 765 mmHg 96%
15:00 +15°C° 1.4 mm 6 mps 765 mmHg 98%
16:00 +15°C° 0.6 mm 6 mps 764 mmHg 98%
17:00 +15°C° 0.6 mm 5 mps 764 mmHg 98%
18:00 +15°C° 0.6 mm 5 mps 764 mmHg 98%
19:00 +15°C° 0.1 mm 4 mps 764 mmHg 98%
20:00 +15°C° 0.1 mm 4 mps 764 mmHg 98%
21:00 +15°C° 0.1 mm 4 mps 763 mmHg 98%
22:00 +16°C° 0 mm 3 mps 763 mmHg 98%
23:00 +16°C° 0 mm 3 mps 763 mmHg 98%

Tomorrow, 14 July, Tuesday

Time Temperature Precipitation Wind Pressure Humidity
00:00 +15°C° 0 mm 2 mps 763 mmHg 98%
01:00 +14°C° 0 mm 3 mps 763 mmHg 97%
02:00 +14°C° 0 mm 3 mps 763 mmHg 97%
03:00 +13°C° 0 mm 4 mps 762 mmHg 96%
04:00 +13°C° 0 mm 4 mps 763 mmHg 95%
05:00 +13°C° 0 mm 4 mps 763 mmHg 94%
06:00 +13°C° 0 mm 4 mps 763 mmHg 94%
07:00 +14°C° 0 mm 5 mps 763 mmHg 89%
08:00 +14°C° 0 mm 5 mps 763 mmHg 85%
09:00 +15°C° 0 mm 5 mps 763 mmHg 81%
10:00 +15°C° 0 mm 5 mps 763 mmHg 78%
11:00 +16°C° 0 mm 5 mps 763 mmHg 76%
12:00 +16°C° 0 mm 5 mps 763 mmHg 73%
13:00 +16°C° 0 mm 6 mps 763 mmHg 73%
14:00 +16°C° 0 mm 6 mps 763 mmHg 73%
15:00 +16°C° 0 mm 6 mps 762 mmHg 74%
16:00 +15°C° 0 mm 6 mps 762 mmHg 79%
17:00 +14°C° 0 mm 6 mps 762 mmHg 83%
18:00 +13°C° 0 mm 5 mps 762 mmHg 88%
19:00 +13°C° 0 mm 5 mps 762 mmHg 90%
20:00 +13°C° 0 mm 5 mps 762 mmHg 91%
21:00 +13°C° 0 mm 5 mps 762 mmHg 92%
22:00 +13°C° 0 mm 4 mps 762 mmHg 93%
23:00 +13°C° 0 mm 4 mps 762 mmHg 94%

Day after tomorrow, 15 July, Wednesday

Time Temperature Precipitation Wind Pressure Humidity
00:00 +13°C° 0 mm 4 mps 762 mmHg 95%
01:00 +13°C° 0 mm 4 mps 762 mmHg 94%
02:00 +13°C° 0 mm 4 mps 761 mmHg 94%
03:00 +13°C° 0 mm 4 mps 761 mmHg 94%
04:00 +13°C° 0 mm 4 mps 761 mmHg 93%
05:00 +13°C° 0 mm 4 mps 761 mmHg 93%
06:00 +13°C° 0 mm 4 mps 761 mmHg 93%
07:00 +13°C° 0 mm 4 mps 762 mmHg 92%
08:00 +14°C° 0 mm 4 mps 762 mmHg 91%
09:00 +14°C° 0 mm 4 mps 762 mmHg 90%
10:00 +14°C° 0 mm 4 mps 762 mmHg 89%
11:00 +15°C° 0 mm 4 mps 762 mmHg 88%
12:00 +15°C° 0 mm 4 mps 763 mmHg 87%
13:00 +17°C° 0 mm 4 mps 763 mmHg 85%
14:00 +17°C° 0 mm 4 mps 763 mmHg 84%
15:00 +18°C° 0 mm 4 mps 763 mmHg 82%
16:00 +17°C° 0 mm 4 mps 763 mmHg 84%
17:00 +17°C° 0 mm 4 mps 763 mmHg 85%
18:00 +17°C° 0 mm 4 mps 763 mmHg 87%
19:00 +16°C° 0 mm 3 mps 763 mmHg 89%
20:00 +14°C° 0 mm 3 mps 764 mmHg 92%
21:00 +14°C° 0 mm 2 mps 764 mmHg 95%
22:00 +14°C° 0 mm 2 mps 764 mmHg 95%
23:00 +14°C° 0 mm 2 mps 764 mmHg 95%

16 July, Thursday

Time Temperature Precipitation Wind Pressure Humidity
00:00 +13°C° 0 mm 2 mps 765 mmHg 95%
01:00 +13°C° 0 mm 2 mps 765 mmHg 95%
02:00 +13°C° 0 mm 2 mps 765 mmHg 95%
03:00 +14°C° 0 mm 2 mps 765 mmHg 95%
04:00 +14°C° 0 mm 2 mps 765 mmHg 95%
05:00 +15°C° 0 mm 2 mps 765 mmHg 94%
06:00 +15°C° 0 mm 2 mps 765 mmHg 94%
07:00 +16°C° 0 mm 3 mps 765 mmHg 90%
08:00 +17°C° 0 mm 3 mps 766 mmHg 86%
09:00 +19°C° 0 mm 4 mps 766 mmHg 83%
10:00 +19°C° 0 mm 4 mps 766 mmHg 82%
11:00 +20°C° 0 mm 4 mps 766 mmHg 80%
12:00 +20°C° 0 mm 4 mps 766 mmHg 79%
13:00 +20°C° 0 mm 4 mps 766 mmHg 79%
14:00 +21°C° 0 mm 4 mps 766 mmHg 79%
15:00 +21°C° 0 mm 4 mps 766 mmHg 79%
16:00 +21°C° 0 mm 4 mps 766 mmHg 80%
17:00 +21°C° 0 mm 4 mps 766 mmHg 81%
18:00 +20°C° 0 mm 4 mps 766 mmHg 82%
19:00 +19°C° 0 mm 4 mps 766 mmHg 86%
20:00 +18°C° 0 mm 3 mps 766 mmHg 89%
21:00 +16°C° 0 mm 2 mps 766 mmHg 93%
22:00 +16°C° 0 mm 2 mps 766 mmHg 93%
23:00 +15°C° 0 mm 2 mps 766 mmHg 94%

17 July, Friday

Time Temperature Precipitation Wind Pressure Humidity
00:00 +15°C° 0 mm 2 mps 766 mmHg 94%
01:00 +15°C° 0 mm 1 mps 766 mmHg 94%
02:00 +15°C° 0 mm 1 mps 766 mmHg 94%
03:00 +15°C° 0 mm 1 mps 766 mmHg 95%
04:00 +15°C° 0 mm 1 mps 766 mmHg 94%
05:00 +16°C° 0 mm 1 mps 766 mmHg 94%
06:00 +18°C° 0 mm 1 mps 766 mmHg 94%
07:00 +18°C° 0 mm 2 mps 766 mmHg 91%
08:00 +19°C° 0 mm 2 mps 766 mmHg 88%
09:00 +20°C° 0 mm 3 mps 766 mmHg 85%
10:00 +20°C° 0 mm 3 mps 766 mmHg 84%
11:00 +21°C° 0 mm 3 mps 766 mmHg 82%
12:00 +21°C° 0 mm 4 mps 766 mmHg 80%
13:00 +21°C° 0 mm 4 mps 766 mmHg 80%
14:00 +21°C° 0 mm 4 mps 766 mmHg 80%
15:00 +21°C° 0 mm 4 mps 765 mmHg 80%
16:00 +21°C° 0 mm 4 mps 765 mmHg 82%
17:00 +20°C° 0 mm 4 mps 765 mmHg 84%
18:00 +19°C° 0 mm 4 mps 765 mmHg 86%
19:00 +18°C° 0 mm 4 mps 765 mmHg 89%
20:00 +17°C° 0 mm 3 mps 765 mmHg 93%
21:00 +15°C° 0 mm 2 mps 765 mmHg 96%
22:00 +15°C° 0 mm 2 mps 765 mmHg 96%
23:00 +14°C° 0 mm 2 mps 765 mmHg 97%

18 July, Saturday

Time Temperature Precipitation Wind Pressure Humidity
00:00 +14°C° 0 mm 2 mps 765 mmHg 97%
01:00 +14°C° 0 mm 2 mps 765 mmHg 97%
02:00 +14°C° 0 mm 2 mps 764 mmHg 97%
03:00 +13°C° 0 mm 3 mps 764 mmHg 97%
04:00 +14°C° 0 mm 3 mps 764 mmHg 97%
05:00 +15°C° 0 mm 4 mps 763 mmHg 96%
06:00 +15°C° 0 mm 4 mps 763 mmHg 96%
07:00 +16°C° 0.1 mm 5 mps 763 mmHg 96%
08:00 +16°C° 0.1 mm 5 mps 763 mmHg 96%
09:00 +16°C° 0.1 mm 6 mps 763 mmHg 96%
10:00 +16°C° 0.1 mm 6 mps 763 mmHg 96%
11:00 +16°C° 0.1 mm 6 mps 762 mmHg 96%
12:00 +17°C° 0.1 mm 7 mps 762 mmHg 95%
13:00 +17°C° 0.1 mm 6 mps 762 mmHg 95%
14:00 +17°C° 0.1 mm 6 mps 762 mmHg 94%
15:00 +17°C° 0.1 mm 6 mps 762 mmHg 94%
16:00 +19°C° 0.1 mm 6 mps 762 mmHg 91%
17:00 +19°C° 0.1 mm 5 mps 762 mmHg 88%
18:00 +19°C° 0.1 mm 5 mps 762 mmHg 85%
19:00 +16°C° 0 mm 5 mps 762 mmHg 87%
20:00 +15°C° 0 mm 4 mps 763 mmHg 89%
21:00 +13°C° 0 mm 4 mps 763 mmHg 91%
22:00 +12°C° 0 mm 4 mps 764 mmHg 91%
23:00 +11°C° 0 mm 4 mps 764 mmHg 91%
Show more